Location: Villamantilla
(40.3385°N, 4.1299°W)
Time: 10:05:36
(UTC+00:00)

Daily predictions for brighter satellites

Satellite Brightness Start Highest point End
(mag) Time Altitude Azimuth Time Altitude Azimuth Time Altitude Azimuth
Cosmos 2279 Rocket 4.1 20:11:08 10° S 20:17:23 90° SW 20:23:40 10° N
Cosmos 1812 Rocket 3.6 20:15:54 10° S 20:20:20 88° W 20:24:46 10° N
Terra 1.9 20:19:52 10° SSE 20:24:30 64° ENE 20:29:10 10° N
CENTAUR R/B 2.6 20:19:55 10° SW 20:25:07 76° NW 20:31:45 10° NNE
SPOT 5 4.0 20:20:46 10° S 20:25:21 46° W 20:30:12 10° NNW
Cosmos 44 Rocket 4.4 20:24:34 10° NNW 20:29:20 36° NE 20:33:56 10° ESE
Meteor 1-27 Rocket 3.7 20:25:27 10° S 20:31:00 67° E 20:36:30 10° NNE
CZ-4B R/B 4.1 20:27:25 10° S 20:31:12 64° WSW 20:34:53 10° NNW
CSL-04 Rocket 4.4 20:26:19 10° S 20:31:29 52° W 20:36:38 10° NNW
CZ-3 Stage 3 3.6 20:27:35 10° W 20:34:37 21° SW 20:38:01 10° S
Aureole 2 3.8 20:35:22 10° SSW 20:38:20 84° ESE 20:41:11 10° NNE
SKYMED 3 4.3 20:35:33 10° NNE 20:39:32 72° ESE 20:43:29 10° S
Cosmos 2221 4.3 20:36:55 10° SW 20:40:45 34° WNW 20:44:38 10° N
IRAS Rocket 4.3 20:35:32 10° SSE 20:41:04 88° WSW 20:46:42 10° NNW
Cosmos 2082 4.0 20:35:30 10° SSW 20:41:05 73° WNW 20:46:43 10° NNE
MetOp-B 4.2 20:36:28 10° SSE 20:41:49 86° ENE 20:47:12 10° NNW
Cosmos 2227 4.4 20:36:46 10° S 20:42:16 51° ESE 20:47:50 10° NNE
Meteor 1-11 Rocket 3.8 20:37:56 10° NNW 20:43:27 78° W 20:49:01 10° S
Cosmos 2263 Rocket 4.3 20:40:27 10° WSW 20:45:19 31° WNW 20:50:13 10° N
CZ-4 R/B 2.4 20:42:10 10° S 20:45:41 40° W 20:49:17 10° NNW
Okean-O 3.1 20:44:49 13° SE 20:48:31 45° ENE 20:52:40 10° N
Spot 2 Rocket 3.7 20:45:34 11° SSE 20:50:18 59° ENE 20:55:18 10° N
Cosmos 2266 Rocket 4.0 20:44:18 10° N 20:50:33 76° E 20:56:53 10° SSE
Helios 1A Rocket 2.3 20:48:24 10° N 20:51:32 79° WNW 20:54:38 10° SSW
NOSS 3-2 (A) 3.0 20:48:17 10° SSW 20:52:59 58° ESE 20:58:26 10° NE
CZ-4B R/B 3.3 20:47:59 10° SSE 20:53:28 82° WSW 20:58:53 10° NNW
Cosmos 1842 Rocket 3.9 20:51:12 10° SSE 20:55:23 45° E 20:59:38 10° NNE
Cosmos 1867 4.1 20:50:51 10° NW 20:56:11 55° WSW 21:01:14 11° SSE
IRS-1A Rocket 4.4 20:50:27 10° SSE 20:56:22 88° ENE 21:02:14 10° NNW
Cosmos 773 Rocket 3.9 20:52:22 10° SSW 20:57:28 84° ESE 21:02:39 10° NNE
Cosmos 1340 Rocket 4.5 20:55:40 10° NNE 20:58:13 17° ENE 20:59:47 14° E
ADEOS 3.7 20:55:30 10° S 21:00:42 79° WSW 21:05:56 10° NNW
BREEZE-M DEB (TANK) 2.3 20:59:03 10° NW 21:01:05 30° NNE 21:02:13 17° E
Cosmos 1570 Rocket 4.2 20:57:19 10° SSW 21:02:37 78° WNW 21:07:59 10° NNE
OAO 3 Rocket 3.5 20:58:36 10° WSW 21:02:54 43° S 21:05:58 18° ESE
Cosmos 1844 Rocket 2.6 20:59:07 10° SSW 21:04:40 78° ESE 21:10:14 10° NNE
USA 245 4.4 21:03:10 18° ESE 21:05:04 26° ENE 21:07:55 10° NNE
EXPRESS MD2 3.5 21:01:59 10° NW 21:06:22 53° NNE 21:08:13 19° E
SL-14 R/B 3.6 21:06:08 20° SSE 21:08:17 40° E 21:11:48 10° NNE
Cosmos 1238 Rocket 3.6 21:04:44 10° SSW 21:09:34 69° W 21:14:22 10° N
Meteor 2-10 Rocket 3.8 21:04:43 10° N 21:10:30 65° ENE 21:14:47 18° SSE
ERS-1 Rocket 4.3 21:09:56 10° SSW 21:14:31 36° W 21:19:07 10° NNW
CZ-4C R/B 3.1 21:08:36 10° NNW 21:15:56 84° NE 21:22:43 19° SE
Cosmos 1151 Rocket 4.1 21:14:26 22° SE 21:16:03 28° E 21:19:45 10° NNE
Cosmos 1066 Rocket 4.3 21:15:31 10° S 21:21:11 84° W 21:27:00 10° N
Meteor 2-4 Rocket 4.4 21:17:37 10° SSW 21:23:12 58° WNW 21:28:59 10° N
CZ-2C R/B 4.5 21:23:48 11° ENE 21:23:48 11° ENE 21:24:31 10° NE
SL-24 R/B - RUBIN 2 4.2 21:20:50 10° SW 21:25:24 60° NW 21:29:45 10° NNE
Cosmos 1844 3.9 21:20:01 10° SSW 21:25:47 79° WNW 21:31:37 10° NNE
CZ-4B R/B 4.1 21:24:45 23° SE 21:27:27 42° ENE 21:32:18 10° N
Okean O Rocket 1.8 21:24:41 18° S 21:27:49 65° WSW 21:32:10 10° NNW
SL-08 R/B 4.4 21:24:00 10° N 21:28:21 43° WNW 21:32:38 10° SW
SL-16 R/B 4.1 21:25:14 10° NW 21:29:37 23° W 21:33:58 10° SSW
Cosmos 1766 Rocket 4.2 21:26:28 10° NNW 21:30:44 52° W 21:34:12 15° SSW
OAO 2 Rocket 3.8 21:27:35 10° WSW 21:32:29 41° S 21:35:03 25° ESE
In-Cosmos 22 4.2 21:27:55 15° S 21:32:47 74° E 21:38:32 10° NNE
NOSS 3-2 (C) 3.3 21:31:30 20° S 21:34:25 42° ESE 21:39:36 10° NE
Hubble Space Telescope 2.9 21:36:14 10° SSW 21:36:26 11° SSW 21:36:26 11° SSW
BlueWalker 3 3.4 21:35:32 10° WNW 21:38:20 22° SW 21:39:18 19° SSW
USA 186 2.2 21:41:05 33° WSW 21:41:23 35° W 21:43:34 10° NNW
Cosmos 1943 3.8 21:36:56 10° NW 21:42:20 50° WSW 21:46:00 20° S
CZ-4B R/B 2.7 21:42:34 39° SSE 21:43:51 72° ENE 21:47:47 10° N
Cosmos 1461 3.2 21:41:01 10° NNW 21:44:18 38° NE 21:45:06 33° E
Transit 2A Rocket 4.4 21:41:48 10° NNW 21:46:10 87° ENE 21:47:44 39° SSE
ATLAS 2AS CENTAUR R/B 3.8 21:44:57 10° NW 21:50:54 33° WSW 21:55:35 15° SSW
Cosmos 2344 4.1 21:48:48 24° SSE 21:52:32 35° ESE 21:59:00 10° NE
Cosmos 1655 Rocket 4.2 21:46:38 10° N 21:52:58 73° W 21:57:18 22° S
Cosmos 2298 Rocket 4.0 21:48:23 10° NNW 21:53:41 80° WSW 21:56:10 32° S
Cosmos 2150 Rocket 4.2 21:49:58 10° NNW 21:55:23 72° WSW 21:57:59 31° S
Cosmos 1500 Rocket 3.7 21:51:29 10° N 21:55:44 55° E 21:56:48 42° SE
Sich 1 3.1 21:51:31 10° NNW 21:55:46 69° W 21:57:31 34° S
Iridium 4 Rocket 4.0 21:55:05 33° SE 21:56:57 45° E 22:01:53 10° NNE
BREEZE-M R/B 3.7 21:57:27 38° SE 21:57:57 39° SE 22:04:35 10° ENE
GP-B 3.3 21:56:11 10° NNE 22:00:30 53° E 22:01:23 44° SE
Cosmos 1607 4.4 21:56:02 10° NNW 22:02:19 55° NE 22:05:32 29° ESE
Terra 4.4 22:00:25 10° WSW 22:02:25 13° W 22:04:26 10° WNW
NOSS 2-3 (D) 2.9 22:07:03 55° SSW 22:07:45 78° SE 22:11:28 10° NE
Cosmos 1758 3.6 22:04:39 10° NNW 22:08:15 52° W 22:09:09 41° SW
Cosmos 2285 Rocket 4.0 22:03:56 10° NNW 22:10:18 72° ENE 22:13:01 36° SE
Cosmos 1538 Rocket 4.0 22:11:36 43° SSE 22:12:55 56° ESE 22:18:01 10° NNE
Milstar 3 Cent rocket 3.6 22:11:56 10° SW 22:13:38 18° SSW 22:13:38 18° SSW
Cosmos 1943 Rocket 3.7 22:16:33 20° E 22:16:33 20° E 22:20:07 10° NE
SPOT 3 Rocket 4.3 22:14:32 26° SSW 22:17:02 46° W 22:21:58 10° NNW
Cosmos 1328 Rocket 4.2 22:24:40 39° E 22:24:40 39° E 22:28:38 10° NNE
Ariane Rocket 3.6 22:24:12 32° SSW 22:26:11 49° W 22:31:07 10° NNW
HBTSS-SV1 4.2 22:22:31 10° WSW 22:26:53 78° S 22:27:25 66° ESE
Lacrosse 5 rocket 3.1 22:30:44 17° ENE 22:30:44 17° ENE 22:31:39 10° NE
Cosmos 1805 Rocket 4.1 22:28:37 10° NNW 22:32:48 50° W 22:33:44 41° SW
Cosmos 1340 Rocket 4.2 22:30:32 10° NW 22:33:43 27° W 22:34:26 25° WSW
Cosmos 724 4.2 22:28:25 10° NNW 22:34:13 80° WSW 22:35:50 49° SSE
NOSS 2-3 (E) 4.0 22:33:45 27° WSW 22:35:23 48° NW 22:39:00 10° NNE
CZ-4B R/B 4.5 22:31:59 10° NNE 22:36:24 69° ESE 22:36:35 67° ESE
Cosmos 1703 3.7 22:37:14 43° WNW 22:37:14 43° WNW 22:39:56 10° N
Cosmos 1408 Rocket 4.3 22:32:42 10° NNW 22:36:54 45° W 22:37:56 37° SW
Cosmos 1666 Rocket 4.0 22:33:16 10° N 22:37:26 45° ENE 22:37:29 45° E
USA 215 3.5 22:37:29 28° ESE 22:41:05 63° NE 22:47:31 10° NW
Cosmos 1743 Rocket 3.6 22:40:06 10° NNW 22:44:24 67° W 22:44:48 62° SW
S3M 3.8 22:48:41 48° S 22:50:33 87° E 22:56:43 10° N
Meteor 1-22 Rocket 4.1 22:49:30 10° NNW 22:54:48 74° W 22:55:47 57° SSW
Meteor 1-15 Rocket 4.2 22:54:17 10° N 23:00:07 82° E 23:01:13 60° SSE
ARGOS Delta rocket 4.0 22:56:39 10° NNE 23:01:57 61° E 23:02:18 60° ESE
Cosmos 1833 Rocket 2.6 22:57:56 10° NNW 23:03:37 79° ENE 23:04:36 61° SE
Cosmos 1953 2.9 23:01:00 10° NNW 23:03:47 46° NW 23:03:47 46° NW
Cosmos 883 Rocket 4.4 23:03:52 52° S 23:05:31 88° W 23:11:42 10° N
Meteor 1-16 Rocket 4.3 23:02:22 10° N 23:07:52 63° ENE 23:08:42 56° ESE
Cosmos 1709 Rocket 3.9 23:01:29 10° N 23:07:52 89° W 23:09:28 54° S
Meteor 1-23 Rocket 4.1 23:07:55 64° S 23:08:50 86° E 23:14:25 10° N
Cosmos 2082 Rocket 4.2 23:05:02 10° N 23:08:55 19° NE 23:11:52 13° E
Cosmos 2278 Rocket 2.6 23:09:54 44° ESE 23:09:54 44° ESE 23:15:07 10° NE
Cosmos 1633 Rocket 3.1 23:10:54 10° N 23:15:02 76° NW 23:15:02 76° NW
Cosmos 1680 Rocket 3.3 23:22:43 76° ESE 23:22:48 76° ESE 23:27:59 10° NNE
Cosmos 494 Rocket 4.0 23:24:39 65° E 23:24:39 65° E 23:29:44 10° NNE
Cosmos 1400 Rocket 4.3 23:23:11 10° N 23:25:30 26° NE 23:25:30 26° NE
CZ-2C R/B 3.9 23:24:44 10° NNE 23:29:38 37° E 23:29:38 37° E
Helios 1B rocket 3.4 23:31:35 37° NNW 23:31:35 37° NNW 23:33:47 10° NNW
Helios 1A 4.3 23:29:27 10° N 23:32:56 30° WNW 23:33:09 30° WNW
Meteor 1-12 Rocket 4.2 23:27:21 10° N 23:33:02 72° E 23:33:43 65° SE
Cosmos 2056 Rocket 3.8 23:28:16 10° N 23:33:16 52° ENE 23:33:39 51° E
ARIANE 5 R/B 2.7 23:36:34 71° NNE 23:36:34 71° NNE 23:40:39 10° N
USA 238 DEB 3.3 23:36:16 58° SSW 23:37:35 90° SE 23:44:10 10° NE
USA 238 3.3 23:36:31 59° SSW 23:37:48 89° ESE 23:44:24 10° NE
Okean 2 4.3 23:42:05 42° NW 23:42:05 42° NW 23:45:00 10° N
ACS3 Solar Sail 3.1 23:38:24 10° NE 23:42:55 23° E 23:43:11 23° E
Cosmos 1470 Rocket 4.1 23:42:49 10° NNW 23:46:41 51° WNW 23:46:41 51° WNW
ALOS 2 2.8 23:49:18 68° NNW 23:49:18 68° NNW 23:53:10 10° NNW
Cosmos 1420 Rocket 4.3 23:48:26 10° NNW 23:53:18 52° W 23:53:18 52° W
Cosmos 1933 Rocket 3.9 23:50:16 10° N 23:53:53 59° NNE 23:53:53 59° NNE
Cosmos 2369 Rocket 4.3 23:55:37 12° E 23:55:37 12° E 23:57:31 10° ENE
